Location: *
(55.6049°S, 142.1985°W)
Time: 00:18:13
(UTC+00:00)

Cosmos 2228 - Pass Details

Date: 12 May 2021
Orbit: 589 x 617 km, 82.5° (Epoch: 18 June)

Event Time Altitude Azimuth Distance (km) Brightness Sun altitude
Exits shadow 14:43:34 40° 216° (SW) 938 3.6 -20.8°
Drops below altitude 10° 14:46:59 10° 177° (S) 2,029 5.7 -20.4°
Sets 14:49:19 0° 170° (S) 2,942 6.6 -20.0°
